ニート彗星

215P/NEAT (2002)

English version
Home page
Updated on September 25, 2011

---------------------------------------------------------------------

・ プロフィール

符号 215P/2002 O8
発見日 2002年7月29日
発見光度 17.5等
発見者 Near-Earth-Asteroid Tracking Team (Jet Propulsion Laboratory)

・ 軌道要素

Epoch 2002 May 6.0 TT = JDT 2452400.5
T 2002 May 8.61614 TT                                   MPC
q   3.2293889            (2000.0)            P               Q
n   0.12169156     Peri.  222.28101     +0.44997049     +0.86696044
a   4.0330079      Node    75.50177     -0.74866054     +0.49700035
e   0.1992605      Incl.   12.78567     -0.48686133     +0.03701683
P   8.10

・ 星図

・ 光度変化

        m1 = -10.2 + 5 logΔ + 50 log r(t - 180)

---------------------------------------------------------------------

軌道要素はM.P.E.C. 2009-C19に掲載されたものです。
星図は StellaNavigator Ver.2.0 for Windows (アストロアーツ 編著 / アスキー出版局刊) で作成したものです。
光度グラフはComet for Windowsで作成したものです。

---------------------------------------------------------------------

Copyright(C) Seiichi Yoshida (comet@aerith.net). All rights reserved.